Wind_Speed
13 7 5 6 4 4 5 13 17 15 14 20 22 15 8 5 2 3 20 28 24 26 27 25 24 23 22 21 20 19 19 18 18 17 15 15 14 14 14 13 14 13 13 13 13 12 10 8 8
11 2 10 4 5 4 9 17 17 18 19 21 19 18 17 6 15 17 31 23 23 24 25 25 24 23 21 19 18 17 17 16 16 16 14 13 13 13 13 11 11 11 11 12 12 12 10 8 10
10 8 4 4 1 2 2 17 14 15 15 9 6 8 6 9 18 27 23 28 28 26 25 25 25 23 20 18 17 16 15 14 13 14 14 13 11 11 11 10 9 8 9 9 10 10 9 8 10
12 7 9 4 5 5 10 13 21 31 6 12 2 5 3 11 19 22 27 25 24 23 25 24 24 23 20 17 16 16 15 13 11 11 11 11 11 9 9 8 8 7 7 7 8 8 8 9 11
10 6 5 2 4 1 7 24 36 15 4 2 3 5 6 13 18 23 25 22 18 22 24 25 24 22 19 16 15 14 14 12 11 10 10 10 10 9 8 7 7 6 6 6 7 7 9 10 12
3 4 3 0 4 4 4 18 12 15 9 1 7 13 7 22 19 25 21 16 15 22 22 21 20 20 18 16 14 13 13 12 10 9 9 8 9 7 7 7 7 5 6 6 6 7 8 11 13
5 4 3 1 2 3 8 13 14 14 10 6 17 6 12 22 18 24 19 19 16 21 20 20 19 17 17 16 15 13 12 12 11 9 8 8 7 6 5 6 4 4 5 6 6 7 8 10 12
2 4 2 3 4 5 11 15 23 14 9 6 11 6 11 27 21 20 22 19 21 19 17 17 17 17 18 17 16 14 13 13 11 11 9 9 8 7 6 6 5 4 5 6 7 6 7 9 12
2 4 2 3 3 2 27 10 26 7 12 7 14 6 27 31 25 24 25 23 23 19 15 14 14 16 17 17 16 15 14 14 13 13 11 11 8 7 6 4 4 5 5 6 7 6 8 8 9
4 3 7 8 6 6 7 20 21 10 10 4 12 18 29 29 27 26 25 24 21 19 16 12 12 17 17 18 17 16 16 15 15 14 14 12 11 10 9 6 6 6 6 6 7 7 8 8 8
6 6 5 6 21 23 12 13 7 17 3 16 28 30 31 29 24 25 24 23 22 17 14 13 11 13 15 17 17 17 16 16 16 15 14 14 13 10 6 6 5 6 6 7 8 8 8 7 8
3 13 16 24 26 8 5 9 5 15 13 26 30 35 33 27 27 24 24 22 20 17 11 12 12 12 11 13 14 15 17 19 17 16 16 16 15 12 7 6 7 8 9 10 9 9 8 8 9
3 8 17 12 9 10 11 8 8 11 12 27 33 32 30 23 19 18 24 22 21 18 14 14 12 12 12 13 15 15 15 16 17 18 19 19 17 16 13 11 10 9 11 10 11 11 10 11 12
7 20 19 8 14 6 4 8 9 5 17 34 27 14 10 11 18 17 18 19 20 17 18 15 13 11 12 10 11 13 11 15 18 19 19 20 21 20 19 19 16 14 14 12 11 10 10 10 11
15 6 9 3 3 1 9 1 3 22 30 29 22 17 9 17 20 20 21 21 19 16 18 15 13 13 11 10 11 12 10 13 14 15 12 18 19 19 17 18 18 14 16 14 13 11 14 12 13
6 5 4 7 3 3 8 6 5 23 33 28 25 19 16 21 20 30 26 23 23 20 18 15 15 13 13 11 9 11 13 13 12 12 12 14 16 16 17 16 16 14 20 19 16 13 14 13 12
6 2 5 8 5 3 2 3 18 21 28 25 22 14 17 20 32 26 32 27 26 20 20 19 16 17 17 15 13 11 12 14 15 14 14 14 15 17 18 15 13 16 19 23 18 15 16 15 14
5 3 4 7 5 7 3 9 3 33 28 26 31 17 25 28 26 15 19 29 24 20 19 17 14 15 13 12 12 14 15 16 17 16 17 18 17 19 19 19 16 14 21 23 23 18 15 15 12
4 5 9 6 7 2 4 4 3 17 30 30 27 17 26 35 13 8 8 8 27 21 19 18 15 15 15 14 15 15 15 15 16 18 20 22 25 21 21 21 21 19 20 25 22 21 19 17 17
9 10 8 8 7 4 10 11 11 9 11 29 30 21 20 23 22 24 14 11 21 27 23 19 14 14 15 17 16 16 16 17 18 19 19 22 22 19 22 23 22 21 21 25 23 23 22 19 21
8 5 5 8 2 1 6 7 5 4 11 20 24 22 14 17 23 23 27 25 26 29 22 17 12 13 13 15 12 13 14 15 17 18 19 20 22 24 24 23 24 22 23 25 25 25 24 23 23
5 10 7 6 3 4 7 4 2 5 6 8 18 25 20 19 17 22 21 22 25 30 22 15 13 10 10 9 7 10 11 10 12 16 16 17 19 22 22 23 24 25 22 26 24 25 25 24 22
10 6 7 3 2 3 6 5 6 3 12 15 22 30 17 25 11 17 26 29 21 20 15 14 12 9 7 5 4 6 8 9 10 11 13 15 15 18 22 20 20 24 24 24 27 26 26 26 26
5 1 7 6 3 4 5 5 5 2 5 3 13 31 18 28 17 18 19 19 19 17 16 17 12 8 2 0 1 4 8 9 7 6 8 13 10 10 16 16 17 18 22 23 26 26 24 24 27
4 6 3 4 4 6 4 3 7 5 2 3 10 20 26 21 19 19 21 20 17 19 19 16 8 2 3 3 3 8 8 9 7 6 5 5 3 6 11 14 16 16 21 21 25 26 26 25 25
5 9 6 5 4 6 5 3 5 7 11 7 15 16 32 28 25 28 27 24 24 22 17 12 3 2 6 5 8 8 11 12 11 8 6 6 4 1 6 11 13 13 16 20 22 25 26 25 24
5 3 7 6 2 3 3 3 7 8 5 22 14 26 26 28 32 28 23 25 19 15 10 5 2 5 7 7 9 7 13 12 18 16 14 12 7 3 2 5 8 10 14 16 19 21 22 23 21
11 5 2 3 2 5 5 4 5 5 5 14 18 20 19 5 12 27 29 23 18 13 10 4 5 6 6 7 9 7 10 11 15 15 14 12 12 10 3 2 4 5 9 13 17 17 16 19 24
2 1 5 5 5 5 2 6 6 10 4 11 17 25 32 22 4 13 24 18 12 8 6 9 5 2 3 5 7 7 9 9 10 14 13 14 12 10 8 5 3 3 8 12 13 14 14 16 18
7 9 6 5 6 3 5 5 5 3 12 22 18 29 29 26 19 12 20 16 11 9 8 7 3 2 1 3 5 5 3 8 9 10 11 10 12 11 12 9 8 5 5 9 11 12 13 14 17
Wind_Direction
25 342 59 35 53 45 340 102 97 74 65 88 92 98 100 98 98 170 155 166 166 165 164 164 160 155 150 151 148 145 142 138 134 131 131 126 126 131 130 130 129 133 137 146 151 146 140 129 132
8 55 80 41 61 42 44 27 38 80 79 76 85 100 93 76 124 148 158 178 168 164 164 167 166 159 152 152 153 150 148 145 141 135 134 132 132 130 134 131 128 132 139 143 147 147 142 130 124
24 30 50 72 40 84 109 36 10 76 73 88 111 67 57 113 129 152 173 167 166 164 166 170 166 164 160 158 158 157 156 151 147 140 137 137 137 133 139 134 132 136 141 147 152 151 146 139 132
20 33 59 72 299 272 102 92 15 309 84 63 62 83 93 157 166 169 161 161 164 168 167 170 170 167 164 164 159 158 160 158 151 145 142 140 141 136 141 140 136 138 147 153 163 164 157 150 145
41 65 68 113 265 321 143 133 187 247 261 44 249 122 101 110 148 152 156 159 168 172 170 171 174 168 166 164 162 162 162 163 161 155 148 144 149 147 147 148 145 145 151 156 164 172 160 159 157
51 59 29 189 239 354 135 173 173 214 205 192 112 127 117 128 145 159 162 165 155 161 164 170 177 175 171 166 167 167 168 170 171 163 155 152 153 154 157 161 157 158 156 163 170 172 162 165 161
119 88 231 24 252 8 136 158 221 182 189 233 155 121 142 146 154 163 165 158 161 155 157 168 181 183 179 174 173 173 175 178 178 172 169 162 160 159 168 170 170 173 177 169 183 173 175 173 167
157 91 354 320 346 129 136 151 193 189 191 170 166 168 168 155 165 162 161 167 167 168 170 173 179 189 192 186 182 180 181 183 182 185 182 177 180 174 178 187 181 201 208 194 189 188 180 175 171
176 62 223 254 165 228 146 161 205 246 154 199 195 198 164 160 168 161 158 157 164 169 174 184 187 190 196 198 190 185 188 193 192 187 191 194 186 180 182 201 215 205 211 215 206 204 187 178 180
125 130 219 218 216 172 186 197 181 187 164 239 166 139 158 163 171 171 171 172 174 174 174 185 188 193 191 200 198 195 195 199 201 194 200 197 188 191 186 201 219 224 213 220 216 204 204 193 179
191 213 203 246 269 257 202 267 235 146 194 205 171 152 165 166 174 172 178 181 182 179 181 177 169 182 199 202 199 199 203 206 207 206 207 202 200 198 193 206 216 223 240 228 229 219 211 205 191
265 251 248 260 249 269 204 221 214 175 192 196 167 162 169 178 179 184 181 189 186 193 196 194 184 182 189 199 207 211 209 212 208 208 207 214 208 195 205 198 217 234 246 234 223 224 215 203 182
245 291 311 319 267 298 265 174 202 228 175 170 154 165 175 182 183 191 205 205 208 211 217 205 195 198 205 209 209 214 220 220 220 218 215 218 209 211 229 236 251 244 241 235 226 214 219 215 194
296 307 298 3 37 29 26 156 152 91 157 152 144 129 138 198 188 188 182 186 199 205 207 201 199 200 217 217 205 210 221 218 222 219 225 227 224 235 242 250 250 260 232 233 231 223 221 218 213
310 315 319 324 283 173 30 352 115 154 148 130 122 107 333 330 265 209 198 195 184 191 199 196 195 206 214 213 207 216 229 217 230 228 234 247 237 242 238 238 241 254 225 226 228 218 215 217 219
338 39 359 278 258 182 75 270 110 136 133 135 141 138 213 286 285 232 207 205 191 197 202 206 209 216 217 218 218 215 221 230 237 234 242 258 245 237 241 241 241 242 225 231 232 227 219 216 217
7 264 267 306 70 150 138 252 119 131 137 144 136 131 186 256 260 259 209 203 201 205 210 209 212 219 218 221 221 233 240 246 247 240 242 245 251 251 239 247 252 242 234 230 226 227 223 218 219
184 215 266 274 303 44 92 248 297 153 141 150 148 139 165 188 219 236 223 199 202 207 209 211 214 212 215 224 235 237 239 251 252 252 251 248 256 250 244 242 247 251 236 229 224 223 227 221 217
250 195 246 258 252 36 260 262 157 145 137 148 166 168 154 182 201 198 290 276 195 213 207 211 221 226 228 234 237 247 259 258 255 256 256 256 255 247 241 242 244 242 240 230 225 226 223 217 211
260 266 235 289 262 132 276 284 77 102 156 164 173 192 189 168 162 144 172 245 218 212 209 214 223 225 234 247 256 259 264 267 265 262 257 261 252 244 241 243 245 246 238 232 228 219 221 221 218
257 211 250 239 351 311 18 323 110 159 197 176 194 194 215 213 145 162 194 226 197 208 206 208 218 229 234 247 255 265 270 273 273 267 262 259 252 258 254 247 243 244 241 232 228 221 220 220 216
241 252 248 289 333 229 135 259 82 152 172 206 188 201 228 196 196 172 201 219 197 195 194 206 212 208 225 245 259 266 275 281 279 277 269 260 257 256 249 244 241 238 238 230 226 224 221 218 216
227 233 239 198 147 62 324 65 265 180 168 209 205 207 216 207 226 196 207 220 197 168 181 204 206 198 214 258 290 301 312 311 301 284 275 274 264 253 238 239 234 232 234 230 224 223 223 219 218
234 135 41 36 73 13 255 137 285 170 286 197 165 191 200 206 188 197 200 189 166 166 184 190 185 182 189 102 269 335 333 334 322 302 298 295 253 246 225 231 236 234 225 227 220 222 225 225 222
110 66 355 350 11 229 308 91 236 269 19 161 224 158 172 165 173 184 188 172 174 173 176 172 165 149 128 154 51 26 21 15 9 7 348 360 270 238 222 231 238 232 219 221 219 223 225 223 227
193 151 155 199 199 255 318 258 250 268 240 307 179 157 148 166 170 166 165 163 163 164 168 154 124 161 157 116 55 50 60 37 30 36 45 20 17 152 219 222 229 224 219 221 219 222 223 227 231
234 177 191 135 85 55 248 278 303 319 323 58 59 146 151 165 154 163 162 157 158 165 160 133 168 151 145 99 71 81 81 66 55 54 46 36 29 52 149 208 224 223 220 221 220 223 230 227 226
171 164 84 17 163 269 293 253 222 242 181 92 65 316 80 79 146 158 160 166 161 163 153 141 129 147 125 95 78 89 91 74 60 54 58 51 47 41 37 146 189 211 221 216 215 218 225 225 221
63 171 68 117 143 173 224 269 224 211 41 94 104 141 147 161 198 169 160 164 157 159 164 144 103 103 100 96 84 90 84 64 62 52 52 49 41 43 49 49 101 174 198 203 206 213 224 221 221
191 214 156 131 254 224 151 257 272 137 148 121 125 145 155 160 168 224 181 173 154 154 163 156 109 134 115 115 92 98 63 38 47 51 44 41 42 49 56 58 59 85 149 185 191 202 205 212 210
Height
1505 1503 1503 1502 1512 1516 1518 1513 1498 1502 1504 1505 1502 1504 1508 1508 1511 1526 1516 1520 1523 1527 1530 1534 1537 1539 1541 1542 1544 1545 1545 1547 1548 1549 1551 1550 1552 1552 1553 1555 1556 1557 1558 1559 1560 1560 1562 1562 1563
1507 1504 1504 1503 1522 1538 1533 1520 1516 1505 1509 1507 1506 1507 1508 1512 1509 1513 1517 1521 1523 1526 1529 1533 1536 1539 1541 1542 1544 1545 1546 1547 1548 1548 1550 1551 1553 1553 1553 1556 1556 1557 1559 1560 1561 1561 1562 1563 1564
1507 1506 1507 1517 1529 1535 1538 1528 1528 1512 1506 1500 1504 1508 1509 1512 1511 1513 1515 1517 1522 1524 1527 1531 1534 1537 1540 1542 1543 1545 1546 1547 1548 1549 1550 1551 1553 1554 1555 1555 1557 1558 1559 1560 1562 1563 1563 1565 1565
1506 1507 1513 1530 1528 1516 1532 1529 1534 1520 1497 1499 1505 1507 1510 1509 1509 1510 1516 1519 1521 1523 1526 1530 1533 1536 1538 1541 1542 1543 1545 1547 1548 1549 1551 1552 1553 1554 1555 1556 1557 1558 1559 1561 1562 1563 1564 1565 1565
1507 1509 1525 1532 1525 1521 1520 1517 1514 1514 1504 1501 1505 1508 1510 1510 1511 1512 1515 1519 1520 1521 1525 1529 1533 1535 1537 1541 1543 1544 1546 1547 1549 1550 1552 1552 1554 1555 1556 1557 1557 1558 1559 1560 1562 1564 1564 1565 1565
1509 1513 1530 1537 1525 1515 1518 1519 1517 1514 1505 1505 1506 1508 1512 1514 1513 1516 1518 1519 1521 1522 1525 1529 1533 1534 1537 1540 1543 1544 1545 1546 1548 1550 1552 1553 1554 1555 1556 1557 1558 1558 1559 1560 1562 1564 1564 1565 1566
1512 1521 1527 1526 1521 1519 1515 1521 1521 1511 1507 1506 1505 1508 1513 1513 1514 1516 1519 1520 1522 1523 1525 1528 1532 1534 1537 1539 1541 1543 1545 1546 1548 1550 1552 1553 1554 1554 1556 1558 1559 1558 1559 1560 1562 1563 1564 1565 1567
1510 1516 1524 1521 1522 1526 1518 1515 1513 1508 1508 1506 1507 1508 1511 1512 1512 1516 1517 1519 1522 1525 1528 1529 1531 1533 1537 1539 1540 1542 1544 1546 1547 1549 1551 1552 1553 1553 1555 1557 1558 1559 1560 1561 1562 1563 1563 1564 1566
1512 1526 1533 1523 1522 1517 1513 1509 1511 1509 1504 1506 1505 1505 1508 1510 1513 1516 1519 1520 1522 1525 1528 1531 1530 1532 1536 1539 1540 1541 1543 1545 1546 1547 1549 1550 1552 1553 1554 1556 1558 1559 1560 1560 1561 1563 1563 1564 1564
1513 1530 1520 1509 1505 1508 1505 1501 1507 1508 1504 1505 1505 1508 1512 1514 1515 1517 1519 1521 1523 1524 1526 1528 1529 1531 1534 1536 1538 1540 1542 1542 1544 1545 1547 1549 1550 1551 1553 1555 1557 1559 1560 1560 1561 1562 1563 1563 1564
1510 1516 1505 1506 1500 1495 1502 1498 1498 1504 1506 1500 1499 1507 1514 1514 1516 1518 1520 1522 1523 1526 1526 1526 1526 1530 1532 1534 1537 1538 1539 1541 1541 1543 1545 1547 1548 1549 1550 1553 1555 1558 1559 1560 1560 1562 1562 1562 1563
1510 1504 1504 1498 1496 1494 1492 1493 1493 1491 1490 1493 1499 1503 1512 1514 1517 1519 1522 1523 1524 1524 1525 1527 1527 1529 1531 1533 1535 1536 1537 1539 1540 1542 1543 1545 1546 1548 1550 1552 1554 1555 1557 1559 1559 1561 1562 1561 1562
1505 1498 1496 1496 1493 1495 1487 1491 1494 1493 1490 1496 1504 1509 1512 1517 1520 1523 1524 1526 1526 1525 1526 1528 1529 1529 1529 1531 1532 1534 1536 1538 1539 1540 1541 1541 1543 1546 1547 1549 1551 1553 1556 1557 1558 1559 1560 1560 1561
1503 1500 1495 1492 1488 1488 1487 1490 1490 1496 1495 1503 1514 1523 1526 1527 1521 1523 1524 1525 1526 1528 1527 1527 1529 1530 1531 1530 1530 1532 1533 1535 1536 1538 1540 1540 1541 1543 1545 1546 1548 1550 1552 1555 1557 1558 1559 1559 1561
1501 1500 1491 1488 1484 1485 1485 1491 1492 1494 1500 1511 1517 1516 1527 1530 1529 1521 1522 1524 1523 1525 1527 1525 1528 1530 1530 1531 1530 1530 1531 1533 1534 1535 1537 1539 1539 1540 1541 1543 1545 1547 1550 1553 1554 1555 1557 1557 1559
1502 1505 1511 1485 1480 1485 1485 1504 1496 1502 1501 1504 1505 1504 1516 1519 1523 1524 1521 1523 1519 1520 1522 1525 1525 1527 1530 1531 1531 1530 1532 1533 1533 1533 1534 1535 1536 1537 1538 1539 1540 1543 1546 1549 1552 1553 1555 1556 1556
1513 1521 1513 1493 1481 1482 1485 1495 1496 1500 1504 1503 1502 1502 1502 1514 1517 1525 1521 1521 1521 1519 1521 1522 1523 1525 1528 1529 1529 1530 1530 1531 1531 1531 1532 1532 1532 1533 1534 1536 1539 1540 1542 1545 1549 1551 1554 1553 1554
1520 1517 1512 1506 1482 1482 1488 1490 1486 1494 1502 1503 1500 1498 1499 1502 1516 1522 1522 1520 1521 1521 1523 1524 1524 1525 1527 1527 1530 1529 1528 1528 1528 1528 1528 1529 1529 1529 1530 1533 1535 1537 1539 1541 1544 1548 1551 1551 1553
1505 1511 1510 1495 1482 1488 1487 1489 1484 1493 1500 1505 1504 1501 1501 1506 1519 1522 1520 1508 1518 1523 1520 1519 1521 1522 1524 1525 1526 1526 1525 1525 1525 1525 1524 1524 1524 1524 1525 1527 1530 1532 1534 1537 1540 1544 1547 1548 1550
1501 1506 1508 1492 1482 1490 1486 1490 1492 1494 1497 1496 1498 1496 1503 1513 1510 1506 1518 1507 1513 1517 1515 1517 1517 1519 1521 1523 1523 1522 1521 1520 1520 1520 1520 1519 1519 1519 1520 1522 1526 1528 1530 1533 1536 1540 1542 1545 1547
1499 1501 1496 1495 1481 1486 1491 1498 1491 1497 1495 1500 1500 1497 1498 1505 1503 1499 1503 1506 1509 1512 1509 1515 1518 1518 1519 1522 1519 1519 1517 1515 1515 1515 1513 1514 1514 1514 1515 1517 1520 1523 1525 1528 1531 1535 1538 1541 1544
1506 1484 1485 1487 1492 1511 1490 1528 1501 1498 1502 1500 1498 1498 1493 1490 1491 1491 1498 1505 1505 1509 1509 1516 1518 1517 1516 1518 1515 1515 1513 1511 1511 1509 1507 1508 1508 1508 1509 1510 1514 1518 1520 1523 1527 1531 1535 1537 1540
1490 1477 1482 1480 1493 1499 1497 1517 1509 1493 1504 1498 1496 1498 1492 1487 1491 1492 1493 1501 1503 1505 1511 1516 1518 1516 1515 1515 1513 1512 1509 1507 1506 1505 1503 1502 1502 1502 1503 1505 1508 1511 1515 1518 1522 1527 1531 1534 1536
1469 1475 1489 1495 1506 1527 1502 1511 1512 1502 1491 1488 1488 1492 1488 1488 1490 1492 1495 1499 1503 1508 1512 1514 1516 1514 1513 1512 1513 1510 1507 1504 1503 1500 1499 1497 1497 1497 1498 1500 1504 1506 1509 1513 1518 1523 1527 1530 1532
1471 1497 1531 1530 1535 1535 1500 1510 1504 1493 1483 1480 1480 1489 1485 1488 1491 1494 1497 1499 1504 1507 1511 1515 1514 1511 1513 1513 1510 1508 1506 1503 1500 1497 1497 1496 1496 1494 1495 1498 1501 1502 1505 1509 1514 1519 1523 1525 1528
1476 1493 1526 1538 1541 1528 1500 1509 1497 1481 1488 1483 1480 1482 1481 1488 1491 1495 1499 1504 1508 1510 1513 1513 1512 1510 1514 1511 1508 1507 1504 1504 1501 1498 1496 1495 1495 1494 1494 1496 1498 1500 1502 1506 1510 1515 1518 1522 1525
1474 1490 1481 1507 1513 1527 1514 1499 1490 1481 1479 1475 1485 1484 1491 1494 1494 1497 1501 1503 1509 1511 1510 1511 1513 1513 1512 1511 1509 1508 1505 1506 1502 1499 1498 1498 1496 1495 1495 1496 1496 1497 1500 1503 1508 1512 1515 1519 1523
1460 1465 1494 1513 1521 1529 1519 1506 1505 1493 1481 1481 1500 1506 1504 1515 1508 1498 1501 1505 1505 1509 1511 1513 1514 1514 1512 1510 1509 1509 1507 1506 1504 1502 1500 1499 1498 1497 1496 1495 1495 1497 1499 1502 1505 1509 1513 1515 1518
1468 1475 1483 1494 1508 1525 1533 1517 1481 1483 1486 1487 1496 1497 1497 1500 1505 1514 1503 1506 1507 1507 1510 1510 1512 1512 1511 1511 1509 1508 1508 1507 1505 1503 1503 1502 1501 1499 1498 1497 1496 1496 1498 1501 1504 1508 1511 1513 1515
1456 1467 1476 1505 1503 1508 1511 1510 1473 1474 1485 1485 1491 1487 1484 1483 1487 1510 1511 1508 1505 1505 1508 1510 1511 1511 1512 1510 1510 1508 1509 1508 1505 1504 1505 1504 1503 1502 1500 1500 1498 1498 1499 1501 1504 1506 1509 1511 1513